This is the latest recevied weather packets stored in our database for station/object DG2GGP-11. If no packets are shown the sender has not sent any weather packets the latest 10 day(s).
| Time | Temp. | Humidity | Pressure | Rain* | Wind** | Luminosity | Snow |
|---|---|---|---|---|---|---|---|
| 1777640357 | 22.22° C | 29% | 1025.2 hPa | 0 mm | - | 47 W/m² | - |
| 1777639757 | 21.67° C | 29% | 1025.4 hPa | 0 mm | - | 48 W/m² | - |
| 1777639157 | 21.67° C | 28% | 1025.4 hPa | 0 mm | - | 49 W/m² | - |
| 1777638557 | 21.67° C | 29% | 1025.4 hPa | 0 mm | - | 49 W/m² | - |
| 1777637957 | 21.11° C | 27% | 1025.5 hPa | 0 mm | - | 49 W/m² | - |
| 1777637357 | 21.11° C | 29% | 1025.5 hPa | 0 mm | - | 49 W/m² | - |
| 1777636757 | 21.67° C | 30% | 1025.5 hPa | 0 mm | - | 49 W/m² | - |
| 1777636157 | 21.11° C | 32% | 1025.5 hPa | 0 mm | - | 48 W/m² | - |
| 1777635557 | 20.56° C | 35% | 1025.6 hPa | 0 mm | - | 48 W/m² | - |
| 1777634957 | 20° C | 35% | 1025.6 hPa | 0 mm | - | 48 W/m² | - |
| 1777634357 | 19.44° C | 35% | 1025.7 hPa | 0 mm | - | 48 W/m² | - |
| 1777633757 | 20° C | 33% | 1025.8 hPa | 0 mm | - | 48 W/m² | - |
| 1777633157 | 20° C | 32% | 1025.9 hPa | 0 mm | - | 48 W/m² | - |
| 1777632557 | 20° C | 33% | 1026 hPa | 0 mm | - | 48 W/m² | - |
| 1777631957 | 18.33° C | 32% | 1026.1 hPa | 0 mm | - | 48 W/m² | - |
| 1777631357 | 18.33° C | 33% | 1026.1 hPa | 0 mm | - | 48 W/m² | - |
| 1777630757 | 18.33° C | 33% | 1026.2 hPa | 0 mm | - | 48 W/m² | - |
| 1777630157 | 18.33° C | 33% | 1026.2 hPa | 0 mm | - | 49 W/m² | - |
| 1777629557 | 18.33° C | 34% | 1026.2 hPa | 0 mm | - | 49 W/m² | - |
| 1777628957 | 17.78° C | 34% | 1026.2 hPa | 0 mm | - | 49 W/m² | - |
| 1777628357 | 17.22° C | 34% | 1026.2 hPa | 0 mm | - | 48 W/m² | - |
| 1777627757 | 16.67° C | 35% | 1026.2 hPa | 0 mm | - | 48 W/m² | - |
| 1777627157 | 16.11° C | 37% | 1026.2 hPa | 0 mm | - | 47 W/m² | - |
| 1777626557 | 15° C | 36% | 1026.2 hPa | 0 mm | - | 45 W/m² | - |
| 1777625957 | 15° C | 36% | 1026.2 hPa | 0 mm | - | 46 W/m² | - |
* Rain latest hour (hover to see other rain measurements)
** Current wind speed in m/s (hover to see current wind gust speed)